Home > Weather > Kumanovo > Past weeks

Flag for Macedonia, Republic of Past Weather in Kumanovo, Macedonia, Republic of — Yesterday and Last 2 Weeks

Now
91 °F

Scattered clouds.


Feels Like: 90 °F
Forecast: 62 / 78 °F
Wind: 3 mph from North

Location: Skopje-Petrovec

Current Time: Jun 27, 2016 at 3:11:18 PM

Latest Report: Jun 27, 2016 at 2:30 PM


Visibility: N/A

Pressure: 29.86 "Hg

Humidity: 32%

Dew Point: 57 °F

Location of KumanovoLocation

Past Weather in Kumanovo — Graph

°F

Kumanovo Temperature Yesterday

Maximum temperature yesterday: 91 °F (at 3:00 PM)
Minimum temperature yesterday: 64 °F (at 5:30 AM)
Average temperature yesterday: 78 °F

High & Low Weather Summary for the Past Weeks

 TemperatureHumidityPressure
High100 °F (Jun 18, 4:30 PM)100% (Jun 13, 6:00 AM)30.15 "Hg (Jun 13, 6:00 AM)
Low50 °F (Jun 16, 5:30 AM)21% (Jun 18, 4:30 PM)29.56 "Hg (Jun 13, 5:00 PM)
Average77 °F60%29.93 "Hg
* Reported Jun 12 2:00 PM — Jun 27 2:00 PM, Kumanovo, Weather by CustomWeather, © 2016

Note: Actual official high and low records may vary slightly from our data, if they occured in-between our weather recording intervals... More about our weather records

Advertising

Kumanovo Weather History for the Previous 24 Hours

Scroll right to see more
 ConditionsComfort  
Time TempWeatherWind HumidityBarometerVisibility
2:00 PM
Mon, Jun 27
90 °FScattered clouds.2 mph31%29.86 "HgN/A
1:30 PM90 °FScattered clouds.5 mph36%29.86 "HgN/A
1:00 PM88 °FScattered clouds.2 mph38%29.89 "HgN/A
12:30 PM90 °FPassing clouds.1 mph38%29.89 "HgN/A
12:00 PM88 °FPassing clouds.5 mph40%29.89 "HgN/A
11:30 AM86 °FPassing clouds.2 mph46%29.89 "HgN/A
11:00 AM86 °FPassing clouds.2 mph43%29.92 "HgN/A
10:30 AM84 °FPassing clouds.2 mph45%29.92 "HgN/A
10:00 AM82 °FPassing clouds.No wind48%29.95 "HgN/A
9:30 AM81 °FPassing clouds.3 mph54%29.95 "HgN/A
9:00 AM79 °FPassing clouds.No wind58%29.95 "HgN/A
8:30 AM75 °FPassing clouds.1 mph65%29.95 "HgN/A
8:00 AM75 °FPassing clouds.1 mph61%29.95 "HgN/A
7:30 AM73 °FPassing clouds.1 mph65%29.95 "HgN/A
7:00 AM72 °FPassing clouds.1 mph69%29.95 "HgN/A
6:30 AM68 °FPassing clouds.1 mph78%29.95 "HgN/A
6:00 AM64 °FPassing clouds.No wind88%29.95 "HgN/A
5:30 AM64 °FPassing clouds.2 mph83%29.95 "HgN/A
5:00 AM66 °FPassing clouds.5 mph78%29.95 "HgN/A
4:30 AM64 °FPassing clouds.1 mph88%29.95 "HgN/A
4:00 AM66 °FClear.2 mph83%29.95 "Hg10 mi
3:00 AM66 °FClear.No wind83%29.95 "Hg10 mi
2:30 AM66 °FClear.1 mph83%29.92 "Hg10 mi
2:00 AM68 °FClear.3 mph78%29.92 "Hg10 mi
1:30 AM68 °FClear.3 mph83%29.92 "Hg10 mi
1:00 AM68 °FClear.2 mph83%29.92 "Hg10 mi
12:30 AM68 °FClear.No wind83%29.92 "Hg10 mi
12:00 AM70 °FClear.2 mph78%29.92 "Hg10 mi
11:30 PM
Sun, Jun 26
70 °FClear.No wind78%29.92 "Hg10 mi
11:00 PM72 °FClear.2 mph73%29.92 "Hg10 mi
10:30 PM75 °FPassing clouds.2 mph65%29.92 "HgN/A
10:00 PM75 °FClear.No wind65%29.92 "Hg10 mi
9:30 PM75 °FPassing clouds.2 mph65%29.92 "HgN/A
9:00 PM77 °FPassing clouds.2 mph61%29.92 "HgN/A
8:30 PM79 °FPassing clouds.5 mph58%29.89 "HgN/A
8:00 PM79 °FPassing clouds.3 mph54%29.89 "HgN/A
7:30 PM81 °FPassing clouds.3 mph54%29.89 "HgN/A
7:00 PM82 °FPassing clouds.6 mph51%29.89 "HgN/A
6:30 PM82 °FPassing clouds.7 mph51%29.89 "HgN/A
6:00 PM84 °FPassing clouds.5 mph51%29.86 "HgN/A
5:30 PM88 °FPassing clouds.7 mph33%29.86 "HgN/A
5:00 PM90 °FPassing clouds.7 mph29%29.86 "HgN/A
4:30 PM88 °FPassing clouds.7 mph35%29.86 "HgN/A
4:00 PM91 °FPassing clouds.3 mph30%29.86 "HgN/A
3:30 PM91 °FPassing clouds.3 mph30%29.86 "HgN/A
3:00 PM91 °FPassing clouds.5 mph30%29.86 "HgN/A
Weather by CustomWeather, © 2016

See weather overviewHow to use our weather pages